sat.trackr.live / text

‹ back to catalog

STARLINK-33875

NORAD 63789 · 2025-091Q

PAYLOAD ACTIVE UNKNOWN

§ Identity

Operator
Country
US
Launch date
2025-05-02
Launch site
AFETR
Launch vehicle
Mass (kg)
RCS (m²)

Purposes: comms

External: N2YO · Heavens-Above · Gunter

§ Orbital elements

Epoch: 2026-05-24T14:24:00.756864Z

Period
94.27 min
Inclination
43.0038°
Eccentricity
0.0001188
Mean motion
15.27592239 rev/d
Perigee alt
482.2 km
Apogee alt
483.8 km
Semi-major
6,861.1 km
B*
6.1211e-4
RAAN
343.6553°
Arg perigee
280.1603°
Mean anomaly
79.9114°
Rev number
6,051

§ Raw data

STARLINK-338751 63789U 25091Q   26144.60000876  .00016626  00000+0  61211-3 0  99982 63789  43.0038 343.6553 0001188 280.1603  79.9114 15.27592239 60518

JSON: /api/v1/satellites/63789 · /tle

For live sub-satellite position, see the globe view (requires WebGL).

§ Visibility from observer

Set your observer location to see the next 7 days of passes ≥ 10°. The values pass through the URL so the page stays shareable.

No JS? Fill the form by hand. The geolocation button needs JavaScript.